Flag for India Weather past 2 weeks in Tarn Taran Sahib, Punjab, India

Now
66 °F

Fog.


Feels Like: 66 °F
Forecast: 64 / 82 °F
Wind: 2 mph from North

Location: Amritsar Airport

Current Time: Mar 30, 2015 at 11:38:48 PM

Latest Report: Mar 30, 2015 at 10:30 PM


Visibility: 2 mi

Pressure: 29.86 "Hg

Humidity: 94%

Dew point: 64 °F

Location of Tarn Taran SahibLocation

Historic Weather in Tarn Taran Sahib — Graph

°F

Tarn Taran Sahib temperature yesterday

Maximum temperature yesterday: 79 °F (at 1:30 PM)
Minimum temperature yesterday: 64 °F (at 3:00 AM)
Average temperature yesterday: 68 °F

Past Weeks' High & Low Weather Summary

 TemperatureHumidityPressure
High90 °F (Mar 28, 1:30 PM)100% (Mar 15, 10:00 PM)30.15 "Hg (Mar 15, 10:00 PM)
Low52 °F (Mar 17, 3:30 AM)40% (Mar 28, 12:00 PM)29.74 "Hg (Mar 28, 6:00 PM)
Average69 °F79%29.96 "Hg
* Reported Mar 15 10:00 PM — Mar 30 10:00 PM, Tarn Taran Sahib, Weather by CustomWeather, © 2015

Note: Actual official high and low records may vary slightly from our data, if they occured in-between our weather recording intervals... More about our weather records

Advertising

Tarn Taran Sahib weather history for previous 24 hours

 ConditionsComfort  
Time TempWeatherWind HumidityBarometerVisibility
10:00 PM
Mon, Mar 30
66 °FFog.3 mph94%29.86 "Hg2 mi
9:30 PM68 °FPartly cloudy.No wind88%29.86 "Hg2 mi
9:00 PM66 °FPartly cloudy.1 mph94%29.86 "Hg2 mi
8:00 PM68 °FThunderstorms. Partly cloudy.3 mph88%29.83 "Hg2 mi
7:30 PM68 °FFog.7 mph88%29.83 "Hg2 mi
7:00 PM68 °FFog.9 mph83%29.83 "Hg2 mi
6:00 PM72 °FThunderstorms. Broken clouds.No wind73%29.80 "Hg2 mi
5:30 PM70 °FThunderstorms. Broken clouds.No wind83%29.80 "Hg2 mi
5:00 PM70 °FThunderstorms. Broken clouds.No wind78%29.80 "Hg2 mi
3:00 PM77 °FBroken clouds.8 mph65%29.83 "Hg2 mi
2:00 PM77 °FBroken clouds.8 mph65%29.86 "Hg2 mi
11:30 AM73 °FBroken clouds.2 mph69%29.92 "Hg3 mi
8:30 AM64 °FFog.2 mph88%29.89 "Hg3 mi
7:30 AM63 °FDrizzle. More clouds than sun.8 mph88%29.83 "Hg2 mi
7:00 AM61 °FDrizzle. More clouds than sun.13 mph94%29.83 "Hg2 mi
5:00 AM61 °FThunderstorms. Mostly cloudy.6 mph94%29.86 "Hg2 mi
Weather by CustomWeather, © 2015

See weather overviewHow to use our weather pages